CW0230 Weather Reports


Display with metric or nautical units.
time (UTC)temp
F
wind
direction
speed
MPH
gust
MPH
rain 1hr
in
rain 24hr
in
rain mn
in
humidity
%
barometer
mb
20260504130504 68 30 2.0 6.0 0.00 0.00 0.00 54 1013.5
20260504110505 64 43 2.0 6.0 0.00 0.00 0.00 68 1013.9
20260504081505 57 162 0.0 3.0 0.00 0.00 0.00 85 1013.9
20260504050006 53 140 0.0 0.0 0.00 0.00 0.00 92 1012.1
20260504044504 53 140 1.0 2.0 0.00 0.00 0.00 92 1012.1
20260504043504 53 140 1.0 3.0 0.00 0.00 0.00 93 1012.1
20260504041504 53 140 0.0 2.0 0.00 0.00 0.00 93 1012.1
20260504040504 53 140 0.0 2.0 0.00 0.00 0.00 92 1012.2
20260504035504 53 140 0.0 1.0 0.00 0.00 0.00 92 1012.2
20260504035004 53 140 0.0 2.0 0.00 0.00 0.00 92 1012.2
20260504034505 53 140 1.0 2.0 0.00 0.00 0.00 92 1012.2
20260504033504 53 140 0.0 2.0 0.00 0.00 0.00 92 1012.2
20260504032505 53 140 0.0 1.0 0.00 0.00 0.00 92 1012.1
20260504032005 53 140 0.0 2.0 0.00 0.00 0.00 92 1012.2
20260504030504 53 140 0.0 2.0 0.00 0.00 0.00 92 1012.2
20260504030005 53 140 0.0 2.0 0.00 0.00 0.00 92 1012.2
20260504025006 53 140 0.0 1.0 0.00 0.00 0.00 92 1012.2
20260504024005 53 140 0.0 2.0 0.00 0.00 0.00 92 1012.2
20260504023005 53 140 0.0 1.0 0.00 0.00 0.00 92 1012.1
20260504020504 53 140 1.0 1.0 0.00 0.00 0.00 92 1012.2
20260504015504 53 140 0.0 2.0 0.00 0.00 0.00 92 1012.2
20260504014504 53 140 1.0 3.0 0.00 0.00 0.00 92 1012.1
20260504014004 53 129 1.0 3.0 0.00 0.00 0.00 92 1012.1
20260504012505 53 128 0.0 2.0 0.00 0.00 0.00 92 1012.0
20260504011005 53 128 0.0 1.0 0.00 0.00 0.00 92 1012.0
20260504005004 53 128 1.0 2.0 0.00 0.00 0.00 92 1011.9
20260504004504 53 128 1.0 2.0 0.00 0.00 0.00 93 1011.9
20260504003504 53 128 0.0 1.0 0.00 0.00 0.00 92 1011.9
20260504002505 53 128 0.0 2.0 0.00 0.00 0.00 93 1011.9
20260504001005 53 126 1.0 2.0 0.00 0.00 0.00 93 1011.8
20260504000004 52 123 0.0 3.0 0.00 0.00 0.00 93 1011.8
20260503235504 52 121 1.0 3.0 0.00 0.00 0.00 93 1011.9
20260503234504 52 93 0.0 3.0 0.00 0.00 0.00 92 1011.9
20260503234004 52 93 1.0 3.0 0.00 0.00 0.00 92 1011.8
20260503233004 52 221 1.0 3.0 0.00 0.00 0.00 93 1011.8
20260503232005 52 201 1.0 3.0 0.00 0.00 0.00 93 1011.8
20260503231506 52 190 1.0 3.0 0.00 0.00 0.00 93 1011.8
20260503230004 52 137 1.0 2.0 0.00 0.00 0.00 93 1011.9
20260503225504 52 137 1.0 2.0 0.00 0.00 0.00 93 1011.8
20260503223004 52 194 1.0 2.0 0.00 0.00 0.00 92 1011.7
20260503222004 52 195 0.0 1.0 0.00 0.00 0.00 92 1011.7
20260503221004 52 195 1.0 3.0 0.00 0.00 0.00 92 1011.5
20260503220004 52 168 0.0 2.0 0.00 0.00 0.00 91 1011.6
20260503215004 52 168 1.0 2.0 0.00 0.00 0.00 91 1011.5
20260503213505 52 168 1.0 2.0 0.00 0.00 0.00 90 1011.3
20260503213005 52 168 1.0 2.0 0.00 0.00 0.00 90 1011.3
20260503211505 53 181 1.0 3.0 0.00 0.00 0.00 90 1011.2
20260503211005 53 187 0.0 2.0 0.00 0.00 0.00 90 1011.2
20260503210505 53 187 1.0 3.0 0.00 0.00 0.00 89 1011.1
20260503204504 54 161 1.0 5.0 0.00 0.00 0.00 89 1011.1
20260503203504 54 175 2.0 5.0 0.00 0.00 0.00 89 1010.9
20260503203005 54 225 2.0 3.0 0.00 0.00 0.00 88 1010.8
20260503201505 55 162 2.0 3.0 0.00 0.00 0.00 87 1010.6
20260503201005 55 170 0.0 3.0 0.00 0.00 0.00 86 1010.5
20260503200505 55 195 1.0 3.0 0.00 0.00 0.00 86 1010.4
20260503195007 55 197 3.0 6.0 0.00 0.00 0.00 86 1010.3
20260503194004 56 174 2.0 6.0 0.00 0.00 0.00 86 1010.2
20260503193504 56 179 2.0 6.0 0.00 0.00 0.00 86 1010.2
20260503192504 56 150 3.0 6.0 0.00 0.00 0.00 86 1010.1
20260503192005 56 181 3.0 6.0 0.00 0.00 0.00 86 1010.2
20260503185505 57 173 3.0 6.0 0.00 0.00 0.00 86 1010.1
20260503185005 57 168 3.0 6.0 0.00 0.00 0.00 85 1010.1
20260503184505 57 172 3.0 6.0 0.00 0.00 0.00 85 1010.0
20260503184004 57 174 3.0 5.0 0.00 0.00 0.00 85 1010.0
20260503182505 57 189 3.0 7.0 0.00 0.00 0.00 85 1009.9
20260503181505 57 194 3.0 9.0 0.00 0.00 0.00 85 1009.8
20260503180505 58 169 3.0 7.0 0.00 0.00 0.00 85 1009.8
20260503175504 58 146 3.0 7.0 0.00 0.00 0.00 85 1009.7
20260503175005 58 185 5.0 8.0 0.00 0.00 0.00 84 1009.7
20260503174505 58 219 5.0 8.0 0.00 0.00 0.00 84 1009.6
20260503174005 59 184 3.0 6.0 0.00 0.00 0.00 84 1009.6
20260503173504 59 218 4.0 7.0 0.00 0.00 0.00 83 1009.5
20260503172004 59 173 4.0 8.0 0.00 0.00 0.00 82 1009.5
20260503171004 60 204 3.0 7.0 0.00 0.00 0.00 81 1009.5
20260503170504 60 182 5.0 7.0 0.00 0.00 0.00 81 1009.5